Regional Weather Roundup
Issued by NWS

Home | Current Version | Previous Version | Text Only | Print | Product List | Glossary Off
Versions: 1 2 3 4 5 6 7 8 9 10 11 12 13 14 15 16 17 18 19 20 21 22 23 24 25 26 27 28 29 30 31 32 33 34 35 36 37 38 39 40 41 42 43 44 45 46 47 48 49 50

000
ASUS43 KOAX 250703
RWRNE

WEATHER ROUNDUP FOR NEBRASKA
NATIONAL WEATHER SERVICE OMAHA NE
200 AM CDT FRI MAY 25 2018

NOTES: SATELLITE DATA IS BEING USED TO AUGMENT CLOUD COVER ABOVE
       12000 FEET.
       "FAIR" INDICATES FEW OR NO CLOUDS BELOW 12,000 FEET WITH NO
       SIGNIFICANT WEATHER AND/OR OBSTRUCTIONS TO VISIBILITY.


NEZ001>004-019>022-054>056-250800-
NEBRASKA PANHANDLE

CITY           SKY/WX    TMP DP  RH WIND       PRES   REMARKS
SCOTTSBLUFF    CLEAR     56  52  86 NE6       30.00F
ALLIANCE       CLEAR     53  50  89 SE6       29.98F
CHADRON        CLEAR     57  54  89 CALM      29.95F
GORDON         FAIR      54  51  89 CALM      29.96F
KIMBALL        CLEAR     55  46  70 SW6       30.08S
SIDNEY         CLEAR     52  49  89 SW8       30.04S
$$

NEZ057>060-069>072-079>082-250800-
SOUTHWEST NEBRASKA

CITY           SKY/WX    TMP DP  RH WIND       PRES   REMARKS
NORTH PLATTE   CLEAR     58  56  93 N3        29.95F
IMPERIAL       CLEAR     62  58  86 SW3       29.98F
LEXINGTON      CLEAR     70  53  54 SW12G20   29.93F
MCCOOK         CLEAR     63  52  67 SW9       29.96F
OGALLALA       CLEAR     57  52  84 CALM      29.99S
$$

NEZ005>010-023>029-035>040-094-250800-
NORTH CENTRAL NEBRASKA

CITY           SKY/WX    TMP DP  RH WIND       PRES   REMARKS
VALENTINE      CLEAR     61  59  93 CALM      29.91S
AINSWORTH      CLEAR     62  59  92 SW6       29.91S
BROKEN BOW     CLEAR     62  60  93 N3        29.90F
O`NEILL        MOCLDY    73  62  69 SW5       29.88S
ORD            MOCLDY    66  60  81 CALM      29.88S
THEDFORD       PTCLDY    65  60  86 CALM      29.95S
$$

NEZ041-046>049-061>064-073>077-083>087-250800-
SOUTH CENTRAL NEBRASKA

CITY           SKY/WX    TMP DP  RH WIND       PRES   REMARKS
GRAND ISLAND   CLOUDY    71  62  73 S9        29.88F
AURORA         CLOUDY    69  64  84 SE6       29.89F
HASTINGS       CLOUDY    69  65  86 SE3       29.89F
HEBRON         CLOUDY    71  65  83 S6        29.89F
HOLDREGE       PTCLDY    68  51  55 SW8       29.92F
KEARNEY        CLOUDY    72  59  63 W10       29.90F
YORK           LGT RAIN  68  68 100 S17       29.88F
$$

NEZ011>018-030>034-042>045-250800-
NORTHEAST NEBRASKA

CITY           SKY/WX    TMP DP  RH WIND       PRES   REMARKS
NORFOLK        MOCLDY    72  61  68 S10       29.87S
ALBION         CLOUDY    69  62  78 CALM      29.89S
BLAIR          CLOUDY    72  63  73 S15       29.91F
COLUMBUS       MOCLDY    72  63  73 S9        29.89F
FREMONT        MOCLDY    73  61  67 S14       29.90F
TEKAMAH        PTCLDY    70  63  78 S13       29.89F
WAYNE          CLOUDY    69  67  93 SW5       29.88R
$$

NEZ050>053-065>068-078-088>093-250800-
SOUTHEAST NEBRASKA

CITY           SKY/WX    TMP DP  RH WIND       PRES   REMARKS
LINCOLN        CLOUDY    70  62  76 S10       29.90F
OMAHA EPPLEY   CLOUDY    72  64  76 S8        29.90F
BEATRICE       CLOUDY    69  64  84 S7        29.91F
FALLS CITY     MOCLDY    68  63  84 S8        29.92F
NEBRASKA CITY  PTCLDY    67  65  93 S7        29.92F
PLATTSMOUTH    PTCLDY    68  63  82 S7        29.93S
$$

NEZ044-045-051>053-067-250800-
OMAHA AREA

CITY           SKY/WX    TMP DP  RH WIND       PRES   REMARKS
OMAHA EPPLEY   CLOUDY    72  64  76 S8        29.90F
BLAIR          CLOUDY    72  63  73 S15       29.91F
FREMONT        MOCLDY    73  61  67 S14       29.90F
MILLARD        CLEAR     72  64  75 S5        29.92S
OFFUTT AFB     PTCLDY    69  64  85 S9        29.91F
PLATTSMOUTH    PTCLDY    68  63  82 S7        29.93S
WAHOO          FAIR      71  60  70 S10       29.90F
$$




USA.gov is the U.S. government's official web portal to all federal, state and local government web resources and services.